DW9234 Weather Reports


time (UTC)temp
F
wind
direction
speed
knots
gust
knots
rain 1hr
in
rain 24hr
in
rain mn
in
humidity
%
barometer
mb
20260505041004 58 128 0.0 0.0 0.00 0.00 0.00 51 1012.2
20260505040005 58 128 0.0 0.0 0.00 0.00 0.00 51 1012.2
20260505034004 59 128 0.0 0.0 0.00 0.00 0.00 50 1012.3
20260505033004 59 128 0.0 0.0 0.00 0.00 0.00 49 1012.3
20260505031004 60 128 0.0 0.0 0.00 0.00 0.00 48 1012.3
20260505030004 60 128 0.0 0.0 0.00 0.00 0.00 47 1012.3
20260505025005 60 128 0.0 0.0 0.00 0.00 0.00 47 1012.4
20260505024005 60 128 0.0 0.0 0.00 0.00 0.00 46 1012.4
20260505023004 61 128 0.0 0.0 0.00 0.00 0.00 46 1012.4
20260505022004 61 128 0.0 0.0 0.00 0.00 0.00 46 1012.4
20260505020004 62 128 0.0 0.0 0.00 0.00 0.00 45 1012.3
20260505015004 62 128 0.0 0.0 0.00 0.00 0.00 44 1012.3
20260505013005 63 128 0.0 0.0 0.00 0.00 0.00 43 1012.1
20260505011004 64 136 0.0 1.7 0.00 0.00 0.00 42 1012.0
20260505010004 64 136 0.0 1.7 0.00 0.00 0.00 41 1011.9
20260505005004 65 138 0.0 1.7 0.00 0.00 0.00 40 1011.6
20260505004005 65 138 0.0 5.2 0.00 0.00 0.00 40 1011.7
20260505003004 66 112 0.0 3.5 0.00 0.00 0.00 39 1011.6
20260505002004 67 92 0.0 3.5 0.00 0.00 0.00 39 1011.6
20260505001004 67 126 0.9 4.3 0.00 0.00 0.00 38 1011.6
20260505000005 68 126 0.0 0.9 0.00 0.00 0.00 36 1011.6
20260504234004 70 124 0.9 1.7 0.00 0.00 0.00 34 1011.5
20260504233004 70 125 0.0 1.7 0.00 0.00 0.00 33 1011.6
20260504232005 71 96 0.0 3.5 0.00 0.00 0.00 33 1011.5
20260504231004 72 96 0.9 3.5 0.00 0.00 0.00 31 1011.5
20260504225004 72 96 0.9 5.2 0.00 0.00 0.00 26 1011.5
20260504224004 72 46 1.7 7.0 0.00 0.00 0.00 27 1011.5
20260504222004 73 84 4.3 5.2 0.00 0.00 0.00 27 1011.4
20260504221004 73 167 0.9 5.2 0.00 0.00 0.00 25 1011.6
20260504220005 73 310 0.0 5.2 0.00 0.00 0.00 24 1011.7
20260504215004 73 13 0.9 9.6 0.00 0.00 0.00 23 1011.7
20260504214004 73 14 1.7 7.0 0.00 0.00 0.00 24 1011.8
20260504213004 74 78 0.0 7.8 0.00 0.00 0.00 23 1011.9
20260504212004 74 69 2.6 6.1 0.00 0.00 0.00 23 1011.7
20260504211004 74 109 5.2 6.1 0.00 0.00 0.00 22 1011.9
20260504210004 74 226 0.0 5.2 0.00 0.00 0.00 23 1011.9
20260504205004 75 115 3.5 6.1 0.00 0.00 0.00 23 1011.8
20260504204004 74 57 4.3 7.0 0.00 0.00 0.00 23 1011.9
20260504203005 74 146 3.5 6.1 0.00 0.00 0.00 24 1011.9
20260504201005 74 81 0.9 8.7 0.00 0.00 0.00 22 1012.1
20260504200004 74 270 3.5 7.0 0.00 0.00 0.00 22 1012.2
20260504195004 74 269 4.3 7.8 0.00 0.00 0.00 21 1012.4
20260504192005 73 322 3.5 8.7 0.00 0.00 0.00 25 1012.8
20260504190004 74 322 1.7 7.0 0.00 0.00 0.00 22 1013.2
20260504185005 74 298 0.9 9.6 0.00 0.00 0.00 21 1013.1
20260504184004 73 101 1.7 9.6 0.00 0.00 0.00 23 1013.2
20260504183004 73 355 2.6 5.2 0.00 0.00 0.00 22 1013.3
20260504182004 73 232 0.0 7.0 0.00 0.00 0.00 26 1013.5
20260504181004 73 62 2.6 7.8 0.00 0.00 0.00 22 1013.7
20260504180005 72 29 0.9 7.8 0.00 0.00 0.00 20 1013.6
20260504175004 72 142 2.6 8.7 0.00 0.00 0.00 21 1013.7
20260504173004 72 82 1.7 8.7 0.00 0.00 0.00 20 1014.1
20260504172004 71 304 4.3 7.0 0.00 0.00 0.00 22 1014.2
20260504171005 71 115 3.5 9.6 0.00 0.00 0.00 22 1014.5
20260504151004 65 330 0.0 7.8 0.00 0.00 0.00 32 1015.6
20260504082004 46 171 0.0 0.0 0.00 0.00 0.00 64 1017.0
20260504081005 46 171 0.0 0.9 0.00 0.00 0.00 64 1017.1
20260504050003 48 60 0.0 1.7 0.00 0.00 0.00 57 1017.0
20260504043004 48 80 0.0 0.0 0.00 0.00 0.00 54 1017.0
20260504042003 48 22 0.0 0.0 0.00 0.00 0.00 54 1016.8